Wind_Speed
33 34 34 31 35 39 36 31 30 39 32 32 33 37 36 33 28 25 27 23 19 17 25 28 21 7 8 5 3 12 10 7 4 5 3 4 3 2 1 2 1 2 2 3 4 4 1 13 5 5 4 14 21 23
34 34 32 31 39 37 34 33 32 40 31 33 31 36 35 36 30 26 34 24 17 20 19 20 22 28 18 16 11 5 5 7 6 2 3 3 3 3 1 1 2 2 2 2 4 2 2 7 12 7 9 13 16 21
34 33 31 34 40 34 34 38 33 39 33 32 34 38 37 37 28 28 28 16 8 10 19 7 4 6 5 5 9 4 2 8 6 10 4 3 3 2 2 2 3 1 2 2 2 5 9 13 4 16 20 17 20 20
33 32 31 39 37 34 37 36 34 36 34 34 37 37 38 32 27 28 13 7 5 5 4 4 4 5 9 10 7 10 16 14 9 11 5 3 2 5 2 1 3 4 6 6 2 9 5 5 18 22 19 21 21 23
31 29 35 40 35 37 38 36 36 38 35 36 35 35 38 31 30 13 7 4 4 3 4 8 14 9 8 6 8 9 7 6 9 4 3 1 2 1 2 2 3 6 3 3 2 9 6 12 21 17 25 25 25 25
30 29 36 41 38 38 38 37 39 34 35 34 33 35 34 31 17 6 2 1 4 7 5 3 3 4 6 5 7 8 5 6 5 4 2 4 3 5 1 3 7 10 8 7 5 12 18 13 16 16 23 24 24 23
30 33 39 40 38 37 37 38 34 35 33 31 33 34 31 19 1 2 3 4 5 9 4 3 2 3 9 4 6 4 6 3 4 2 4 4 7 7 3 3 11 12 11 9 1 13 5 12 16 22 22 21 21 21
33 37 39 38 36 35 35 33 35 32 30 32 31 29 17 3 1 3 7 8 8 6 3 2 3 1 12 4 4 5 2 3 2 3 3 3 4 6 4 10 13 15 14 3 14 12 10 14 15 18 20 21 23 24
36 37 35 33 32 31 31 32 32 30 31 27 25 16 2 0 1 5 12 7 3 2 4 2 3 3 11 6 6 3 3 1 2 2 2 3 3 5 6 13 15 16 13 15 16 12 12 13 16 17 20 21 23 24
33 31 30 30 29 28 29 30 29 31 25 22 12 5 1 0 14 5 2 2 3 3 4 3 6 3 10 8 4 8 1 1 1 1 4 3 3 9 16 15 15 15 15 16 18 19 20 19 19 19 18 18 19 20
30 29 28 27 26 26 27 27 29 25 21 17 9 4 8 10 2 1 2 3 4 3 7 6 4 3 7 2 2 5 3 2 1 1 1 2 2 8 17 19 17 16 16 15 13 13 13 14 16 18 18 17 17 18
28 27 26 25 23 24 25 25 22 21 20 19 14 12 5 4 2 3 1 2 5 1 7 7 8 6 6 4 3 3 2 2 2 2 3 3 3 16 18 19 20 18 17 16 14 15 14 14 14 15 17 17 17 16
26 24 23 22 22 23 23 19 19 21 23 10 6 4 4 4 8 6 6 4 3 10 11 10 4 7 5 3 5 2 2 2 1 3 3 3 11 19 19 20 22 19 19 16 16 16 15 15 14 15 17 17 16 15
23 21 20 19 21 20 18 18 21 21 8 4 5 6 4 5 4 4 4 3 5 10 19 17 7 4 4 3 2 2 1 2 3 3 3 4 15 20 19 21 21 21 21 19 18 17 16 17 16 14 15 16 16 16
19 18 17 18 17 17 17 21 20 12 4 5 5 5 4 5 8 8 12 5 13 19 15 8 6 3 2 2 2 3 4 4 5 4 4 13 18 23 21 23 20 22 19 20 18 18 16 16 17 15 14 15 15 15
16 15 14 14 14 15 19 18 10 6 5 5 10 4 12 3 10 11 16 15 20 20 11 4 3 3 3 3 5 6 4 4 4 6 16 19 22 23 23 23 21 20 16 19 17 16 15 16 17 15 13 13 14 15
12 9 12 12 12 16 16 9 5 6 6 6 7 15 7 8 11 10 13 19 18 12 2 4 5 3 4 3 4 4 4 6 16 17 20 21 21 21 21 24 22 18 18 19 17 13 14 16 14 14 14 14 13 13
8 8 8 9 11 12 7 7 5 6 9 11 8 10 18 17 11 14 15 19 15 9 6 3 7 6 4 4 3 6 15 17 16 19 21 20 18 20 21 24 21 18 19 17 16 13 13 16 15 14 13 13 14 12
6 5 6 8 9 5 3 5 6 6 7 7 9 9 11 11 17 17 17 18 11 13 5 5 5 3 3 6 13 17 17 18 20 23 20 18 20 21 25 20 18 19 19 16 14 14 13 14 12 13 12 14 14 10
2 3 5 7 5 4 5 6 6 7 5 5 6 10 9 9 12 19 25 21 19 10 10 4 4 8 11 18 18 18 20 20 22 22 20 22 22 25 24 20 19 20 17 14 13 11 14 12 10 11 13 12 12 11
0 4 6 6 9 9 7 5 7 6 6 6 8 4 5 10 17 20 20 15 14 7 5 5 12 17 18 16 17 21 17 18 20 18 22 23 23 24 21 19 19 17 15 14 15 14 13 12 11 12 13 10 11 8
3 4 6 8 6 6 8 9 6 5 4 6 4 4 5 4 5 10 7 11 5 4 7 10 17 20 21 21 19 16 18 19 18 16 16 18 23 22 20 20 17 17 15 13 16 13 13 10 13 14 12 11 11 8
7 6 6 6 5 6 5 6 4 5 4 3 3 4 5 4 6 5 4 4 5 11 11 18 22 19 18 18 18 17 18 21 21 19 19 20 20 19 19 18 15 13 14 14 15 13 12 13 12 14 13 11 11 10
8 4 5 6 8 5 4 5 5 5 4 6 4 3 4 6 5 3 1 1 8 16 17 20 22 21 23 21 19 21 22 21 22 22 19 18 21 24 19 16 12 11 10 12 17 12 12 12 12 12 12 12 9 12
4 9 6 7 7 4 5 5 6 7 3 4 3 4 4 5 2 2 0 3 13 20 22 23 22 21 20 21 22 22 21 20 21 22 18 16 21 22 19 15 11 10 10 13 18 14 12 12 14 13 12 8 12 11
7 10 6 4 4 4 1 3 2 1 2 3 2 4 5 3 3 3 2 6 15 22 21 23 23 24 23 22 23 25 24 20 18 18 18 18 20 18 17 16 17 15 11 16 18 18 16 14 17 16 15 12 11 11
5 3 6 5 6 8 7 7 5 6 3 2 3 5 3 4 3 3 7 12 15 20 21 23 23 22 23 24 22 22 17 16 14 18 19 15 11 10 10 13 18 19 19 19 21 15 17 20 21 18 15 11 9 8
6 5 5 5 6 5 6 5 3 2 1 2 1 3 1 3 3 8 13 17 20 21 23 24 22 21 22 21 21 19 17 15 15 16 13 8 9 9 14 20 18 16 17 17 16 18 17 18 13 16 15 14 14 12
6 12 7 6 5 6 5 4 3 3 2 1 2 1 3 4 12 15 13 15 19 21 25 27 25 24 22 18 17 14 17 15 19 22 19 18 17 20 20 17 19 17 15 16 14 13 14 15 18 15 19 23 20 16
6 7 6 3 4 2 3 5 8 7 4 2 2 4 8 11 13 14 11 15 18 21 25 23 24 24 23 21 22 18 13 13 18 18 16 20 22 24 19 18 22 18 18 19 21 19 14 12 11 11 11 10 9 6
9 5 6 5 5 6 10 10 7 3 3 4 7 9 10 10 11 9 9 15 19 24 25 24 24 23 21 20 20 20 19 17 15 10 9 17 21 23 17 23 15 18 21 20 15 13 13 12 10 7 4 3 1 1
4 4 7 5 4 9 8 4 2 1 2 3 3 5 7 5 4 4 10 16 20 25 23 24 25 24 21 20 16 15 13 16 15 12 12 21 21 20 22 14 16 19 21 15 15 12 12 13 11 9 6 5 4 3
8 13 13 8 6 7 5 3 2 1 3 3 3 4 5 4 4 5 12 14 20 23 23 22 21 20 19 17 17 16 15 14 14 14 13 14 15 14 12 15 16 20 23 17 15 13 10 10 10 9 7 5 4 4
Wind_Direction
325 327 328 331 336 339 335 334 336 342 333 330 328 331 339 331 329 325 311 309 288 275 287 284 285 285 298 291 296 331 330 9 328 1 345 1 323 313 51 66 106 14 352 19 332 22 3 359 1 64 297 323 330 336
322 323 325 327 336 338 334 332 330 339 331 328 323 324 328 333 325 326 316 319 295 262 267 281 274 288 271 265 267 295 273 16 346 346 17 320 300 275 98 342 345 348 150 199 120 208 271 94 121 91 11 335 333 329
319 321 322 325 332 333 331 332 327 333 329 328 327 319 327 330 325 323 320 318 289 275 294 281 312 278 236 230 219 265 279 3 314 322 305 267 274 342 321 76 128 114 137 244 45 35 332 146 332 359 354 344 334 329
317 319 324 324 330 329 328 331 327 327 328 326 327 319 322 327 325 331 333 323 264 288 274 276 310 289 274 299 222 230 268 292 283 284 253 248 271 28 45 20 55 352 314 349 279 34 48 69 3 348 337 337 336 332
313 317 325 326 328 326 325 327 326 324 321 323 329 322 322 320 329 332 327 303 265 252 298 291 297 274 284 236 273 304 294 292 299 273 239 2 65 32 52 89 50 6 12 354 25 13 336 305 327 334 333 340 335 338
311 315 323 324 325 324 325 326 325 324 320 329 324 319 318 327 327 344 307 218 227 270 288 304 309 277 296 288 301 305 268 278 266 282 38 83 42 325 205 73 34 24 7 355 313 325 317 318 325 328 342 341 345 339
311 315 321 319 322 322 323 325 324 322 329 325 321 319 326 331 2 225 253 289 294 285 276 295 290 348 350 16 329 302 274 278 264 34 43 60 16 18 32 60 6 3 350 338 5 330 341 329 323 339 342 345 350 356
314 317 318 319 322 323 325 325 325 328 325 325 323 325 332 51 45 271 258 280 275 279 252 300 293 191 10 358 322 300 286 212 54 86 56 56 43 52 60 351 357 357 355 29 342 336 315 327 339 339 347 352 355 359
315 317 319 322 323 324 326 327 326 325 330 330 329 330 41 330 244 273 312 324 227 252 343 25 346 304 349 6 298 308 354 318 93 78 59 34 54 47 357 355 354 355 356 335 336 351 346 347 349 353 353 355 357 357
315 318 321 323 324 325 327 326 325 332 335 338 335 340 329 343 315 316 49 45 50 38 43 61 340 305 340 346 314 347 264 312 130 30 95 77 81 46 15 9 2 356 352 353 351 348 348 347 351 351 353 355 355 356
315 319 321 322 325 326 323 326 329 337 346 348 331 298 305 332 6 45 40 45 13 60 16 355 4 317 337 14 300 346 298 276 212 118 77 89 74 19 6 6 5 1 359 356 351 346 344 342 343 347 355 357 357 358
316 318 321 323 322 320 324 327 336 341 341 324 305 295 324 342 356 66 51 23 45 58 4 342 326 308 303 323 274 314 283 309 80 327 72 76 42 7 1 358 0 1 359 357 357 353 352 352 352 354 357 358 357 357
315 319 320 317 317 321 327 336 336 336 333 333 12 7 350 348 36 44 359 344 21 353 8 333 322 321 324 330 282 313 296 41 273 48 68 58 22 2 358 353 354 357 357 357 357 354 354 355 357 358 357 0 2 2
315 314 313 314 320 329 334 334 333 332 336 14 15 13 52 13 49 28 352 351 333 331 330 329 293 332 318 327 323 320 24 338 45 55 65 29 10 356 349 351 350 351 353 352 351 349 351 354 356 359 1 3 5 8
311 310 313 319 331 333 333 335 336 345 27 42 30 42 53 116 63 46 14 354 336 335 324 326 283 279 336 325 13 343 6 67 28 36 7 6 352 347 343 347 348 345 345 346 346 345 345 347 352 354 359 2 6 11
305 305 316 331 334 334 335 343 1 64 63 51 43 30 357 70 27 14 7 356 346 344 337 307 283 1 38 348 37 12 23 43 11 340 337 351 344 342 343 346 346 342 345 340 342 345 349 348 348 351 355 0 4 11
296 307 326 326 337 340 346 10 47 54 60 57 57 33 55 59 43 20 357 348 352 346 1 335 33 351 305 42 54 21 17 337 334 333 338 338 338 339 345 345 347 351 351 342 345 349 359 343 347 353 355 3 2 5
296 315 318 326 341 349 30 41 68 66 64 49 72 47 58 54 34 13 0 2 16 18 17 33 352 31 22 20 20 346 330 328 328 329 332 339 332 342 340 339 343 346 341 344 346 353 355 345 351 354 355 0 354 3
306 319 324 336 350 23 65 50 51 86 76 85 72 57 61 50 43 33 33 27 44 52 66 45 40 29 4 357 328 322 324 328 326 325 326 329 335 338 338 342 346 339 341 341 342 351 347 347 340 343 355 359 348 357
327 331 349 353 21 89 77 53 62 84 89 83 86 62 71 55 46 45 46 46 54 54 46 51 19 345 331 321 324 321 319 321 322 324 324 333 337 329 335 337 337 335 338 346 346 339 351 343 347 355 355 350 351 1
46 11 24 90 67 69 74 62 65 80 102 98 108 94 87 48 43 42 36 37 53 44 43 356 339 331 329 331 324 323 327 323 324 320 318 325 328 325 333 337 336 335 344 356 349 347 346 347 351 351 340 345 341 344
82 79 86 68 73 72 65 43 78 85 89 100 78 72 64 37 22 19 37 45 62 28 354 333 332 336 334 336 333 333 323 324 331 327 330 327 334 340 339 331 332 335 345 347 343 340 350 347 347 355 345 339 332 340
111 91 67 56 80 62 69 53 61 43 67 45 55 49 33 28 15 26 66 52 33 346 342 333 337 343 336 339 340 339 337 331 333 334 336 332 336 340 328 331 336 335 334 342 332 336 336 334 339 337 327 325 331 335
112 73 53 57 48 79 75 51 50 42 56 35 37 22 1 1 12 65 74 87 353 346 336 338 344 340 344 342 334 330 332 330 324 327 337 333 333 335 336 335 334 333 333 323 334 336 338 342 339 344 337 341 356 351
94 22 44 43 40 71 51 36 19 48 54 358 60 358 350 352 45 25 246 322 336 351 347 344 344 343 329 327 331 336 337 330 325 322 338 336 323 325 329 338 336 341 332 330 342 343 337 345 332 329 329 339 352 342
73 26 45 47 37 87 53 82 63 86 75 42 2 345 358 6 43 278 277 300 344 353 347 347 341 338 332 334 332 337 334 330 329 329 336 330 322 321 325 332 338 344 353 344 333 332 328 326 319 325 329 325 328 334
94 68 61 68 91 103 96 82 89 74 63 49 329 358 40 24 290 267 304 327 336 345 347 345 342 338 336 334 335 337 336 336 335 332 333 330 326 331 336 328 335 331 338 329 319 322 323 313 314 321 324 319 312 318
91 100 119 119 90 82 111 84 77 132 176 50 20 34 143 192 250 317 327 332 329 330 338 340 343 340 338 335 337 339 341 340 338 347 359 24 20 7 354 346 336 329 316 310 314 312 313 314 322 327 321 310 302 295
97 132 109 81 87 68 68 99 128 121 83 88 127 255 262 254 294 310 320 332 332 331 338 341 345 344 343 342 346 349 348 348 354 356 4 7 7 3 350 341 345 339 343 340 333 322 316 313 307 297 285 283 290 291
130 136 110 96 83 89 104 131 137 153 176 203 260 279 287 300 311 308 303 329 339 342 343 342 344 341 342 346 349 355 359 356 355 344 342 350 349 353 349 346 347 345 342 338 333 332 332 325 318 302 289 288 295 290
126 119 94 75 92 118 139 145 152 183 249 271 275 281 290 304 307 301 295 331 342 344 346 348 346 350 348 348 346 344 354 350 347 350 353 357 350 348 342 345 343 345 344 341 348 351 357 358 358 357 350 339 347 67
109 109 123 102 108 144 144 152 161 248 277 275 278 273 304 297 284 281 314 332 341 350 355 351 352 353 350 348 349 346 342 341 345 354 9 4 358 352 338 346 349 352 357 2 4 6 10 16 22 29 38 63 83 71
102 95 93 97 120 162 171 158 184 272 259 263 261 268 276 277 274 311 325 337 347 354 357 359 360 360 359 360 359 359 356 353 353 352 357 354 358 348 347 0 360 357 2 4 11 13 15 22 32 40 53 65 64 59
Height
1557 1551 1546 1541 1535 1529 1524 1519 1514 1509 1503 1499 1494 1490 1484 1479 1474 1470 1465 1464 1463 1455 1448 1445 1446 1445 1445 1443 1441 1436 1431 1425 1423 1426 1420 1418 1413 1416 1414 1426 1433 1432 1436 1428 1422 1422 1418 1431 1425 1431 1440 1432 1427 1421
1552 1547 1542 1537 1531 1525 1520 1515 1510 1505 1499 1495 1490 1484 1480 1474 1469 1466 1459 1458 1455 1452 1445 1445 1442 1441 1441 1440 1441 1439 1436 1432 1431 1432 1427 1427 1423 1415 1418 1416 1427 1433 1439 1443 1443 1442 1436 1434 1435 1438 1438 1435 1431 1427
1547 1542 1537 1533 1527 1521 1516 1510 1505 1501 1494 1489 1484 1479 1474 1468 1464 1461 1453 1449 1449 1447 1441 1437 1435 1434 1435 1436 1438 1439 1434 1434 1433 1434 1431 1426 1423 1418 1417 1423 1426 1434 1433 1434 1433 1438 1435 1435 1437 1436 1435 1433 1430 1428
1541 1537 1532 1527 1521 1515 1510 1504 1499 1494 1489 1483 1478 1473 1467 1462 1458 1453 1450 1449 1449 1447 1443 1436 1435 1435 1434 1434 1434 1435 1433 1432 1432 1431 1428 1424 1418 1422 1425 1427 1430 1438 1434 1435 1429 1435 1435 1433 1435 1435 1432 1430 1427 1423
1535 1531 1527 1521 1515 1510 1504 1498 1493 1488 1482 1477 1472 1468 1462 1456 1451 1449 1448 1447 1447 1448 1443 1435 1432 1431 1431 1432 1433 1432 1431 1430 1430 1427 1423 1420 1423 1424 1427 1429 1443 1445 1446 1443 1439 1442 1442 1439 1436 1434 1429 1425 1422 1417
1528 1524 1520 1515 1508 1503 1497 1491 1486 1480 1475 1470 1466 1461 1454 1450 1446 1447 1446 1447 1445 1444 1441 1435 1431 1430 1430 1430 1430 1430 1429 1428 1427 1425 1423 1425 1427 1428 1424 1437 1449 1448 1447 1447 1445 1442 1440 1437 1436 1433 1429 1424 1420 1417
1521 1517 1512 1507 1501 1496 1491 1486 1480 1475 1470 1465 1460 1453 1449 1445 1444 1447 1447 1445 1443 1443 1441 1434 1429 1429 1429 1428 1428 1427 1426 1426 1426 1424 1425 1427 1430 1429 1434 1445 1451 1449 1447 1445 1444 1442 1439 1437 1434 1431 1428 1424 1419 1415
1515 1511 1505 1500 1495 1490 1486 1481 1475 1470 1465 1460 1454 1449 1444 1442 1444 1445 1443 1443 1442 1442 1442 1438 1435 1432 1431 1429 1428 1425 1424 1423 1424 1426 1428 1430 1435 1440 1451 1454 1452 1450 1447 1445 1444 1442 1440 1438 1434 1430 1426 1422 1417 1413
1509 1503 1498 1493 1489 1484 1480 1475 1469 1465 1460 1454 1449 1444 1443 1443 1443 1442 1441 1439 1439 1445 1441 1443 1444 1443 1435 1433 1429 1426 1424 1424 1426 1428 1432 1435 1446 1456 1458 1455 1453 1451 1449 1446 1443 1440 1439 1436 1434 1430 1426 1421 1417 1412
1501 1497 1492 1488 1484 1479 1475 1470 1465 1460 1455 1450 1446 1444 1443 1442 1440 1440 1440 1441 1441 1444 1444 1447 1447 1447 1445 1438 1431 1430 1425 1424 1421 1435 1435 1444 1456 1461 1459 1457 1454 1451 1448 1445 1442 1438 1436 1434 1432 1430 1426 1422 1418 1414
1495 1491 1486 1482 1478 1474 1469 1465 1462 1458 1454 1452 1448 1445 1443 1442 1441 1440 1441 1442 1446 1449 1452 1451 1449 1449 1446 1447 1442 1437 1435 1428 1425 1436 1433 1445 1460 1463 1460 1458 1455 1452 1448 1446 1444 1441 1438 1435 1432 1429 1426 1422 1418 1414
1489 1485 1481 1478 1474 1470 1466 1462 1457 1456 1453 1450 1449 1445 1445 1443 1441 1442 1447 1448 1451 1459 1457 1454 1454 1451 1447 1445 1443 1437 1437 1429 1435 1433 1439 1454 1466 1465 1462 1459 1455 1452 1448 1445 1443 1440 1437 1434 1431 1428 1425 1422 1418 1414
1483 1479 1476 1473 1470 1467 1464 1460 1457 1453 1450 1447 1448 1447 1448 1448 1451 1457 1463 1458 1461 1461 1459 1457 1455 1452 1448 1447 1444 1441 1436 1439 1436 1440 1454 1466 1469 1466 1463 1460 1455 1452 1449 1445 1442 1440 1437 1434 1431 1427 1425 1422 1418 1414
1479 1475 1472 1469 1466 1463 1462 1459 1456 1452 1449 1449 1450 1455 1457 1464 1468 1470 1470 1468 1466 1463 1459 1457 1455 1454 1450 1448 1445 1445 1440 1438 1438 1451 1464 1470 1469 1467 1464 1461 1456 1452 1448 1445 1442 1439 1437 1433 1430 1428 1425 1422 1419 1416
1473 1471 1469 1467 1465 1462 1460 1457 1454 1451 1452 1454 1456 1466 1471 1474 1473 1473 1472 1470 1469 1464 1460 1457 1455 1454 1451 1450 1448 1447 1445 1456 1464 1472 1474 1472 1469 1467 1464 1460 1456 1452 1448 1445 1442 1439 1436 1433 1430 1428 1425 1423 1420 1417
1469 1468 1466 1464 1463 1461 1458 1454 1453 1452 1456 1462 1469 1473 1474 1472 1476 1475 1473 1472 1467 1464 1461 1459 1456 1455 1458 1457 1460 1465 1461 1476 1480 1480 1477 1473 1469 1466 1463 1459 1455 1452 1448 1445 1442 1438 1436 1433 1430 1428 1425 1423 1421 1418
1466 1466 1464 1462 1461 1461 1459 1456 1456 1458 1463 1473 1483 1483 1482 1482 1483 1482 1479 1475 1468 1466 1466 1463 1468 1468 1463 1464 1474 1479 1486 1486 1483 1480 1476 1473 1469 1466 1462 1458 1454 1450 1447 1444 1441 1438 1435 1433 1430 1428 1425 1423 1421 1419
1462 1462 1461 1461 1459 1459 1459 1459 1462 1467 1478 1485 1487 1490 1488 1488 1487 1484 1481 1476 1471 1470 1471 1476 1475 1478 1483 1486 1487 1491 1488 1486 1482 1479 1476 1472 1468 1465 1461 1456 1453 1449 1446 1443 1441 1438 1435 1433 1430 1428 1426 1424 1422 1419
1460 1459 1459 1458 1457 1458 1460 1465 1467 1476 1486 1489 1492 1492 1491 1491 1491 1489 1484 1480 1477 1476 1478 1483 1490 1496 1497 1496 1494 1490 1487 1484 1480 1476 1473 1471 1467 1463 1459 1455 1451 1448 1445 1442 1440 1437 1435 1433 1431 1429 1426 1424 1422 1420
1458 1457 1456 1456 1456 1457 1464 1471 1474 1478 1487 1493 1495 1494 1493 1494 1493 1491 1487 1484 1481 1482 1490 1498 1503 1503 1501 1497 1494 1490 1486 1483 1478 1473 1470 1467 1464 1460 1456 1453 1450 1447 1444 1441 1439 1437 1434 1432 1430 1428 1426 1425 1422 1420
1457 1458 1456 1456 1457 1460 1468 1474 1479 1484 1489 1493 1496 1496 1497 1497 1495 1493 1492 1491 1490 1499 1503 1505 1504 1501 1498 1495 1491 1487 1483 1480 1476 1473 1469 1464 1462 1457 1453 1451 1448 1445 1442 1440 1438 1435 1433 1431 1429 1428 1426 1424 1422 1421
1457 1457 1458 1458 1462 1467 1475 1481 1484 1488 1491 1494 1496 1497 1498 1499 1499 1499 1499 1498 1503 1506 1505 1503 1501 1497 1493 1490 1486 1483 1480 1476 1473 1470 1467 1463 1457 1454 1451 1449 1446 1443 1441 1440 1437 1435 1432 1430 1429 1427 1425 1424 1421 1420
1458 1459 1460 1462 1466 1473 1487 1486 1487 1491 1494 1497 1499 1501 1503 1503 1503 1503 1505 1506 1507 1506 1504 1501 1498 1494 1491 1487 1484 1480 1477 1473 1469 1467 1463 1459 1456 1453 1450 1447 1445 1443 1440 1438 1436 1434 1431 1430 1427 1426 1424 1422 1420 1419
1457 1460 1463 1468 1475 1482 1487 1490 1494 1496 1498 1501 1503 1508 1507 1506 1506 1506 1508 1508 1508 1506 1502 1498 1494 1490 1487 1484 1481 1477 1473 1470 1466 1463 1461 1456 1453 1451 1448 1446 1443 1441 1439 1437 1435 1432 1430 1428 1427 1424 1422 1420 1419 1418
1459 1474 1474 1479 1484 1485 1492 1497 1500 1500 1509 1507 1509 1511 1510 1509 1510 1511 1509 1507 1505 1502 1499 1496 1492 1488 1485 1481 1478 1474 1470 1466 1463 1459 1457 1455 1451 1448 1446 1444 1442 1440 1438 1436 1433 1430 1428 1427 1425 1423 1421 1419 1418 1417
1472 1482 1482 1485 1490 1492 1498 1505 1508 1510 1509 1512 1513 1511 1511 1511 1517 1516 1508 1506 1503 1501 1498 1494 1489 1485 1482 1479 1474 1469 1466 1462 1459 1456 1454 1451 1448 1445 1443 1441 1439 1437 1436 1434 1431 1428 1426 1425 1423 1421 1419 1418 1416 1415
1478 1486 1488 1490 1493 1496 1501 1504 1506 1508 1514 1516 1513 1513 1514 1522 1521 1509 1506 1504 1502 1500 1497 1492 1488 1484 1479 1475 1471 1468 1463 1460 1457 1455 1451 1448 1445 1444 1442 1441 1438 1435 1432 1430 1428 1426 1424 1422 1420 1418 1416 1415 1415 1414
1481 1486 1489 1494 1495 1496 1499 1504 1508 1514 1513 1514 1515 1518 1519 1517 1514 1509 1506 1503 1501 1498 1494 1490 1486 1481 1477 1472 1468 1464 1461 1458 1455 1452 1449 1447 1445 1443 1441 1439 1435 1433 1430 1426 1424 1422 1420 1418 1416 1415 1413 1411 1411 1411
1482 1487 1491 1496 1497 1496 1501 1507 1510 1511 1512 1513 1514 1514 1513 1511 1509 1506 1505 1502 1499 1495 1490 1485 1481 1478 1474 1470 1466 1462 1459 1455 1453 1449 1447 1445 1442 1441 1438 1435 1432 1428 1425 1422 1420 1419 1417 1415 1413 1410 1408 1406 1405 1405
1485 1487 1491 1495 1495 1501 1505 1507 1509 1511 1511 1512 1513 1512 1511 1508 1506 1504 1502 1500 1496 1493 1488 1483 1479 1474 1469 1465 1462 1460 1457 1454 1452 1450 1447 1444 1442 1438 1435 1431 1429 1426 1423 1420 1416 1412 1409 1407 1405 1403 1402 1402 1402 1401
1483 1487 1490 1494 1499 1503 1506 1508 1510 1511 1511 1511 1511 1511 1509 1506 1503 1501 1500 1498 1494 1491 1485 1480 1476 1471 1467 1463 1460 1456 1453 1453 1451 1449 1447 1445 1441 1437 1434 1431 1428 1425 1422 1417 1413 1410 1407 1405 1403 1401 1401 1400 1400 1400
1484 1485 1488 1495 1503 1506 1508 1509 1510 1510 1510 1509 1509 1508 1506 1505 1503 1500 1498 1496 1493 1488 1484 1479 1473 1469 1465 1463 1460 1457 1455 1451 1449 1447 1445 1443 1440 1438 1434 1431 1428 1425 1421 1416 1413 1410 1408 1406 1404 1402 1401 1401 1401 1401
1487 1486 1488 1495 1502 1505 1507 1509 1509 1509 1509 1509 1507 1506 1505 1505 1502 1500 1497 1494 1491 1487 1482 1478 1474 1469 1465 1462 1459 1456 1453 1450 1447 1444 1443 1444 1442 1439 1434 1431 1428 1425 1421 1417 1415 1412 1410 1408 1406 1405 1404 1403 1403 1403